Woodstock, VA

8:05 PM EST on March 03, 2015 (GMT -0500)
Lakeview Farms | Change Station
CLOSE
Current Station
Personal Weather Station
Location: Woodstock, VA
Elevation: 850 ft
Nearby Weather Stations
Active Advisory: Winter Storm Watch Active Notice: Public Information Statement

Elev 850 ft 38.86 °N, 78.52 °W | Updated 10 minutes ago

Overcast
Overcast
37.2 °F
Feels Like 28 °F
N
16.1
Wind Variable Wind from SSW

Today
High -- | Low -- °F
--% Chance of Precip.
Yesterday
High -- | Low -- °F
Precip. -- in
6:43 AM 6:08 PM
Waxing Gibbous, 97% visible
Pressure 29.92 in
Visibility 10.0 miles
Clouds Scattered Clouds 11000 ft
Windchill 28 °F
Dew Point 29 °F
Humidity 71%
Rainfall 0.00 in
Snow Depth Not available.
UV 0 out of 12
Pollen .90 out of 12
Air Quality Not available.
Flu Activity Not available.
METAR KLUA 040055Z AUTO 22018G22KT 10SM SCT110 04/00 A2992 RMK AO2

More Conditions Fewer Conditions

Pressure 29.92 in
Visibility 10.0 miles
Clouds Scattered Clouds 11000 ft
Windchill 28 °F
Dew Point 29 °F
Humidity 71%
Rainfall 0.00 in
Snow Depth Not available.
UV 0 out of 12
Pollen .90 out of 12
Air Quality Not available.
Flu Activity Not available.
METAR KLUA 040055Z AUTO 22018G22KT 10SM SCT110 04/00 A2992 RMK AO2

More Conditions Fewer Conditions

10-Day Weather Forecast

Almanac

Astronomy

Mar. 03, 2015 Rise Set
Actual Time
Civil Twilight
Nautical Twilight
Astronomical Twilight
Moon
Length of Visible Light
Length of Day
Tomorrow will be .
, % of the Moon is Illuminated

Today's Extremes

State Highs State Lows

Community

WunderPhotos

Upload Photos

1,802,340 photos uploaded!

WunderBlogs® & News

Nearby

Air Quality

  Air Quality AQ Index Pollutant
Not available.

Snow Depth

Station Depth Elevation

Earthquake Activity

City Distance Mag. Time & Date
Minimum magnitude displayed is 2.5.

Coastal Water Temperatures

Place Temperature

Nearby Weather Stations

Winter Storm Watch
Statement as of 6:19 PM EST on March 03, 2015

... Winter Storm Watch remains in effect from Wednesday evening
through Thursday evening...

* locations... Potomac Highlands and the northern Shenandoah
Valley.

* Hazard types... snow... heavy at times.

* Timing... rain changing to snow Wednesday evening. Snow may be
heavy at times Wednesday night into Thursday morning.

* Impacts... roads will be snow covered with visibility reduced
to near one-quarter mile at times. Traveling potentially will
be dangerous.

* Winds... northwest around 10 mph.

* Temperatures... 25 to 30 degrees.

Precautionary/preparedness actions...

A Winter Storm Watch means there is a potential for significant
snow... sleet... or ice accumulations that may impact travel.
Continue to monitor the latest forecasts.